Powrót do katalogu

NIMBUS 5

AktywnyPogodaSSO
NORAD 6305·PAYLOAD·🇺🇸 United States

Wystrzelony Dec 11, 1972 z Vandenberg Space Force Base

Loading…

Następne Przeloty (najbliższe 24 godziny)

TLE

ŚwieżeSource: Space-Track

Epoka: Sep 14, 2026, 04:34 UTC

1 06305U 72097A   26257.19075521 -.00000024  00000-0  32898-4 0  9992
2 06305  99.7935 153.6890 0007775 294.3686 229.2286 13.44258960636686

Śledź NIMBUS 5 w czasie rzeczywistym z AllMySat

Download on the App Store